Weather in Zhlobin

Belarus     52˚53′32″N   30˚02′16″E
temp.,
°C
wind,
m/s
gust,
m/s
humid.,
%
clouds,
%
prec.,
mm/h
press.,
hPa
HPBL,
m
29 november, sun
sun2900:00+1˚ene4697100 0.8 1020321
03:00ne4698100 2.4 1019264
06:00ne3498100 1.6 1018255
09:00w119796 1.9 101938
12:00+1˚s239797 0.1 1019234
15:00+2˚s358997 0.2 1020443
18:00+1˚s358887 0.0 1020427
21:00se369294 0.1 1022252
30 november, mon
mon3000:00−1˚sse369699 0.3 1022255
03:00−1˚sse369699 0.3 1023234
06:00−2˚s369543 0.0 1023158
09:00−3˚ssw249625 0.0 1024139
12:00−1˚sw348985 0.0 1025429
15:00−1˚wsw348492 0.1 1025601
18:00sw2482100 0.0 1026390
21:00wsw3585100 0.1 1027366
1 december, tue
tue100:00−1˚wsw258699 0.1 1028213
03:00−1˚sw238299 0.1 1028137
06:00−1˚wsw2387100 0.1 1029238
09:00−1˚wnw128996 0.1 103086
12:00−1˚nnw118326 0.0 1030224
15:00ene118015 0.0 1030364
18:00−2˚ene229018 0.0 103131
21:00−3˚ene349113 0.0 103296
2 december, wed
wed200:00−3˚ne358923 0.0 1032128
03:00−3˚ne368939 0.0 1032183
06:00−2˚ene359379 0.1 1031245
09:00−1˚ene369489 0.1 1031300
12:00ene4694100 0.1 1031396
15:00e468398 0.1 1029558
18:00−3˚e369231 0.0 1029209
21:00−2˚ese369565 0.1 1029373
3 december, thu
thu300:00−2˚ese369697 0.1 1028324
03:00−2˚ese369590 0.3 1028304
06:00−2˚ese369689 0.1 1027289
09:00−2˚se369594 0.2 1027281
12:00−1˚se469080 0.0 1027355
15:00se468987 0.1 1026489
18:00−1˚se4794100 0.1 1026385
21:00−1˚se5893100 0.1 1026419